Palembang / Talangbetutu, Indonesia

9:14 PM WIB on February 22, 2017 (GMT +0700)
Sultan M Badaruddin Ii

Weather History for WIPP - January, 2013

Change the Weather History Date:

Friday, January 4, 2013

  Actual Average Record
Temperature  
Mean Temperature 79 °F -  
Max Temperature 85 °F - - ()
Min Temperature 73 °F - - ()
Cooling Degree Days 14    
Growing Degree Days 29 (Base 50)    
Moisture  
Dew Point 75 °F    
Average Humidity 85    
Maximum Humidity 100    
Minimum Humidity 72    
Precipitation  
Precipitation 0.04 in - - ()
Sea Level Pressure  
Sea Level Pressure 29.77 in    
Wind  
Wind Speed 3 mph ()    
Max Wind Speed 12 mph    
Max Gust Speed -    
Visibility 5.0 miles    
Events Rain , Thunderstorm    
T = Trace of Precipitation, MM = Missing Value Source: Averaged Metar Reports

Daily Weather History Graph

Daily Weather History Graph

Search for Another Location

Airport or City:

Trip Planner

Search our weather history database for the weather conditions in past years. The results will help you decide how hot, cold, wet, or windy it might be!

Date:

Astronomy

Jan. 04, 2013 Rise Set
Actual Time 5:57 AM WIB 6:14 PM WIB
Civil Twilight 5:35 AM WIB 6:37 PM WIB
Nautical Twilight 5:08 AM WIB 7:03 PM WIB
Astronomical Twilight 4:42 AM WIB 7:29 PM WIB
Moon 11:28 PM WIB (1/4) 11:05 AM WIB (1/4)
Length of Visible Light 13h 02m
Length of Day
12h 17m
Waning Gibbous, 60% of the Moon is Illuminated
Jan 4
Waning Gibbous
Jan 5
Last Quarter
Jan 12
New
Jan 19
First Quarter
Jan 27
Full

Hourly Weather History & Observations

Time (WIB) Temp. Heat Index Dew Point Humidity Pressure Visibility Wind Dir Wind Speed Gust Speed Precip Events Conditions
1:00 AM 74 °F - 72 °F 94% 29.82 in 6 mi SW 8.1 mph - - Rain Light Rain
4:00 AM 75 °F - 74 °F 94% 29.78 in 5 mi Calm Calm - - Rain , Thunderstorm Thunderstorms and Rain
5:30 AM 75.2 °F - 75.2 °F 100% 29.77 in 3.7 mi Calm Calm - N/A Rain Rain
6:00 AM 75.2 °F - 75.2 °F 100% 29.80 in 3.1 mi Calm Calm - N/A Rain Light Rain
6:30 AM 75.2 °F - 73.4 °F 94% 29.80 in 2.5 mi NW 3.5 mph - N/A Rain Light Rain
7:00 AM 75 °F - 74 °F 95% 29.82 in 2 mi Calm Calm - - Rain Light Rain
7:00 AM 75.2 °F - 73.4 °F 94% 29.80 in 1.6 mi Calm Calm - N/A Rain Light Rain
8:00 AM 75.2 °F - 73.4 °F 94% 29.80 in 3.1 mi Calm Calm - N/A Rain Light Rain
9:00 AM 77.0 °F - 75.2 °F 94% 29.83 in 6.2 mi North 4.6 mph - N/A   Scattered Clouds
9:30 AM 78.8 °F - 75.2 °F 89% 29.83 in 6.2 mi Calm Calm - N/A   Scattered Clouds
10:00 AM 79 °F - 76 °F 90% 29.83 in 6 mi Calm Calm - -   Partly Cloudy
10:30 AM 80.6 °F 87.1 °F 77.0 °F 89% 29.80 in 6.2 mi NW 5.8 mph - N/A   Scattered Clouds
11:00 AM 82.4 °F 92.4 °F 78.8 °F 89% 29.80 in 6.2 mi NW 6.9 mph - N/A   Scattered Clouds
12:00 PM 84.2 °F 96.1 °F 78.8 °F 84% 29.77 in 6.2 mi WNW 9.2 mph - N/A   Mostly Cloudy
12:30 PM 82.4 °F 89.5 °F 75.2 °F 79% 29.77 in 6.2 mi NW 9.2 mph - N/A   Mostly Cloudy
1:00 PM 83 °F - 75 °F 72% 29.77 in 6 mi WNW 9.2 mph - -   Partly Cloudy
1:00 PM 82.4 °F 89.5 °F 75.2 °F 79% 29.77 in 6.2 mi NW 8.1 mph - N/A   Mostly Cloudy
1:30 PM 82.4 °F 89.5 °F 75.2 °F 79% 29.74 in 6.2 mi NW 11.5 mph - N/A   Mostly Cloudy
2:00 PM 84.2 °F 92.3 °F 75.2 °F 74% 29.74 in 6.2 mi NW 8.1 mph - N/A   Mostly Cloudy
2:30 PM 84.2 °F 92.3 °F 75.2 °F 74% 29.71 in 6.2 mi NW 10.4 mph - N/A   Mostly Cloudy
3:00 PM 84.2 °F 92.3 °F 75.2 °F 74% 29.71 in 6.2 mi NW 8.1 mph - N/A   Mostly Cloudy
3:30 PM 84.2 °F 92.3 °F 75.2 °F 74% 29.71 in 6.2 mi NNW 5.8 mph - N/A   Mostly Cloudy
4:00 PM 84.2 °F 92.3 °F 75.2 °F 74% 29.71 in 6.2 mi NNW 5.8 mph - N/A   Scattered Clouds
4:30 PM 84.2 °F 92.3 °F 75.2 °F 74% 29.71 in 6.2 mi NNW 6.9 mph - N/A   Scattered Clouds
5:00 PM 82.4 °F 89.5 °F 75.2 °F 79% 29.71 in 6.2 mi Calm Calm - N/A   Partly Cloudy
5:30 PM 84.2 °F 92.3 °F 75.2 °F 74% 29.71 in 6.2 mi North 4.6 mph - N/A   Partly Cloudy
6:00 PM 82.4 °F 89.5 °F 75.2 °F 79% 29.71 in 6.2 mi Calm Calm - N/A   Partly Cloudy
6:30 PM 82.4 °F 90.9 °F 77.0 °F 84% 29.74 in 6.2 mi Calm Calm - N/A   Partly Cloudy
7:00 PM 81 °F - 74 °F 75% 29.75 in 4 mi Calm Calm - -   Partly Cloudy
7:00 PM 80.6 °F 85.4 °F 73.4 °F 79% 29.74 in 6.2 mi Calm Calm - N/A   Partly Cloudy
7:30 PM 80.6 °F 87.1 °F 77.0 °F 89% 29.74 in 6.2 mi Calm Calm - N/A   Scattered Clouds
8:30 PM 80.6 °F 87.1 °F 77.0 °F 89% 29.77 in 3.1 mi Calm Calm - N/A   Haze
9:00 PM 80.6 °F 87.1 °F 77.0 °F 89% 29.80 in 1.9 mi South 4.6 mph - N/A   Haze
9:30 PM 77.0 °F - 71.6 °F 83% 29.80 in 3.7 mi South 3.5 mph - N/A   Scattered Clouds
10:00 PM 78 °F - 72 °F 78% 29.81 in 3 mi SW 3.5 mph - -   Haze
10:00 PM 77.0 °F - 73.4 °F 89% 29.80 in 3.1 mi SW 3.5 mph - N/A   Haze
10:30 PM 77.0 °F - 73.4 °F 89% 29.80 in 3.7 mi SW 9.2 mph - N/A   Scattered Clouds